This demonstration page uses our WeatherBlox Daily Observations layout. Learn more.

Left ArrowRight Arrow

39.92423, -83.80882

Hourly Observations for August 8, 2022

Temp ( °F °C ) Dew Point ( °F °C ) Humidity (%) Winds ( mph kmh ) Pressure ( in mb ) Visibility ( mi km ) Precip ( " mm )
12:56 am 00:56 Clear N/A N/A N/A SW 7 11 N/A 10 16 0.00 0.00
1:56 am 01:56 Clear 73 23 N/A N/A SW 7 11 30.07 1018 10 16 0.00 0.00
2:56 am 02:56 Clear 73 23 N/A N/A SSW 7 11 30.07 1018 10 16 0.00 0.00
3:56 am 03:56 Clear N/A N/A N/A SW 6 9 N/A 10 16 0.00 0.00
4:56 am 04:56 Clear N/A N/A N/A SSW 3 6 N/A 10 16 0.00 0.00
5:56 am 05:56 Clear N/A N/A N/A SSW 5 7 N/A 10 16 0.00 0.00
6:56 am 06:56 Partly Cloudy N/A N/A N/A SSW 7 11 N/A 10 16 0.00 0.00
7:17 am 07:17 Mostly Cloudy N/A N/A N/A SSW 8 13 N/A 10 16 0.00 0.00
7:56 am 07:56 Sunny N/A N/A N/A SW 8 13 N/A 10 16 0.00 0.00
8:56 am 08:56 Mostly Sunny 73 23 N/A N/A SW 9 15 30.06 1018 10 16 0.00 0.00
9:56 am 09:56 Mostly Sunny 78 25.6 78 25.6 100 100 SW 10 17 30.06 1018 10 16 0.00 0.00
10:56 am 10:56 Sunny 83 28.3 78 25.6 85 85 SW 8 13 30.05 1018 10 16 0.00 0.00
11:56 am 11:56 Mostly Cloudy 85 29.4 76 24.4 75 75 SW 9 15 30.01 1016 10 16 0.00 0.00
12:06 pm 12:06 Partly Cloudy 86 30 75 24 70 70 SW 12 19 30.01 1016 10 16 0.00 0.00
12:15 pm 12:15 Mostly Cloudy 86 30 75 24 70 70 SW 13 20 29.99 1016 10 16 0.00 0.00
12:24 pm 12:24 Mostly Cloudy 84 29 75 24 74 74 WSW 12 19 30.00 1016 10 16 0.00 0.00
12:56 pm 12:56 Mostly Cloudy 86 30 76 24.4 72 72 SW 15 24 29.99 1016 10 16 0.00 0.00
1:56 pm 13:56 Mostly Cloudy 87 30.6 77 25 72 72 SW 17 28 30.01 1016 10 16 0.00 0.00
2:56 pm 14:56 Cloudy 87 30.6 78 25.6 75 75 SW 7 11 29.99 1016 10 16 0.00 0.00
3:56 pm 15:56 Cloudy 88 31.1 78 25.6 73 73 SSW 10 17 29.93 1014 10 16 0.00 0.00
4:56 pm 16:56 Sunny 87 30.6 76 24.4 70 70 SSW 9 15 29.90 1013 10 16 0.00 0.00
5:56 pm 17:56 Mostly Sunny 87 30.6 76 24.4 70 70 SW 13 20 29.89 1012 10 16 0.00 0.00
6:56 pm 18:56 Partly Cloudy 84 28.9 76 24.4 77 77 SW 10 17 29.89 1012 10 16 0.00 0.00
7:56 pm 19:56 Mostly Sunny 83 28.3 71 21.7 67 67 WSW 10 17 29.91 1013 10 16 0.00 0.00
8:56 pm 20:56 Clear 79 26.1 73 22.8 82 82 SW 6 9 29.94 1014 10 16 0.00 0.00
9:56 pm 21:56 Mostly Clear 76 24.4 N/A N/A WSW 5 7 29.98 1015 10 16 0.00 0.00
10:56 pm 22:56 Mostly Clear 76 24.4 N/A N/A SW 5 7 29.98 1015 10 16 0.00 0.00
11:49 pm 23:49 Mostly Cloudy 79 26 79 26 100 100 SW 5 7 29.96 1015 10 16 0.00 0.00
11:56 pm 23:56 Mostly Cloudy 78 25.6 78 25.6 100 100 SW 3 6 29.99 1016 10 16 0.00 0.00

Powered by AerisWeather